Rochester, NY

6:40 PM EDT on October 13, 2019 (GMT -0400)
Greater Rochester International

Weather History for KROC - May, 2019

Change the Weather History Date:

Wednesday, May 1, 2019

  Actual Average Record
Temperature  
Mean Temperature 59 °F 52 °F  
Max Temperature 73 °F 63 °F 90 °F (1970)
Min Temperature 44 °F 42 °F 26 °F (1978)
Degree Days  
Heating Degree Days 6 13  
Month to date heating degree days 6 13  
Since 1 July heating degree days 6130 6316  
Cooling Degree Days 0 0  
Month to date cooling degree days 0 0  
Year to date cooling degree days 0 4  
Growing Degree Days 8 (Base 50)    
Moisture  
Dew Point 50 °F    
Average Humidity 74    
Maximum Humidity 97    
Minimum Humidity 50    
Precipitation  
Precipitation 0.54 in 0.09 in 1.24 in (2017)
Month to date precipitation 0.54 0.09  
Year to date precipitation 10.47 9.68  
Snow  
Snow 0.00 in 0.00 in 3.00 in (1908)
Month to date snowfall 0.0 0.0  
Since 1 July snowfall 97.1 99.1  
Snow Depth 0.00 in    
Sea Level Pressure  
Sea Level Pressure 30.15 in    
Wind  
Wind Speed 11 mph (SE)    
Max Wind Speed 20 mph    
Max Gust Speed 25 mph    
Visibility 8 miles    
Events Rain    
T = Trace of Precipitation, MM = Missing Value Source: NWS Daily Summary

Daily Weather History Graph

Daily Weather History Graph

Search for Another Location

Airport or City:

Astronomy

May. 01, 2019 Rise Set
Actual Time 6:04 AM EDT 8:11 PM EDT
Civil Twilight 5:33 AM EDT 8:42 PM EDT
Nautical Twilight 4:55 AM EDT 9:21 PM EDT
Astronomical Twilight 4:13 AM EDT 10:03 PM EDT
Moon 4:56 AM EDT (5/1) 4:50 PM EDT (5/1)
Length of Visible Light 15h 09m
Length of Day
14h 07m
Waning Crescent, 11% of the Moon is Illuminated
May 1
Waning Crescent
May 4
New
May 11
First Quarter
May 18
Full
May 26
Last Quarter

Hourly Weather History & Observations

Time (EDT) Temp. Windchill Dew Point Humidity Pressure Visibility Wind Dir Wind Speed Gust Speed Precip Events Conditions
12:54 AM 48.9 °F - 30.9 °F 50% 30.39 in 10.0 mi East 8.1 mph - N/A   Overcast
1:54 AM 48.9 °F - 30.0 °F 48% 30.45 in 10.0 mi NNW 4.6 mph - 0.00 in Rain Light Rain
2:54 AM 45.0 °F 39.3 °F 36.0 °F 71% 30.36 in 10.0 mi East 11.5 mph - 0.03 in Rain Light Rain
3:54 AM 45.0 °F 38.9 °F 35.1 °F 68% 30.34 in 9.0 mi ESE 12.7 mph - 0.00 in Rain Light Rain
4:54 AM 44.1 °F 38.1 °F 36.0 °F 73% 30.34 in 10.0 mi East 11.5 mph - 0.02 in Rain Light Rain
5:54 AM 44.1 °F 38.6 °F 37.9 °F 79% 30.34 in 7.0 mi SE 10.4 mph - 0.02 in Rain Light Rain
6:29 AM 44.1 °F 37.1 °F 39.9 °F 85% 30.30 in 7.0 mi East 15.0 mph - 0.06 in Rain Light Rain
6:47 AM 45.0 °F 39.3 °F 39.9 °F 82% 30.31 in 10.0 mi East 11.5 mph - 0.07 in   Overcast
6:54 AM 45.0 °F 39.7 °F 39.9 °F 82% 30.34 in 10.0 mi East 10.4 mph - 0.07 in   Overcast
7:47 AM 46.0 °F 41.4 °F 41.0 °F 83% 30.33 in 10.0 mi East 9.2 mph - N/A   Overcast
8:54 AM 46.9 °F - 42.1 °F 83% 30.30 in 10.0 mi ESE 13.8 mph - N/A   Overcast
9:11 AM 46.9 °F - 42.1 °F 83% 30.28 in 10.0 mi ESE 15.0 mph 21.9 mph N/A   Overcast
9:54 AM 46.9 °F - 43.0 °F 86% 30.27 in 10.0 mi ESE 12.7 mph - 0.01 in   Overcast
10:54 AM 48.9 °F - 45.0 °F 86% 30.23 in 10.0 mi ESE 12.7 mph - N/A   Overcast
11:54 AM 54.0 °F - 46.9 °F 77% 30.18 in 10.0 mi SE 18.4 mph 24.2 mph N/A   Mostly Cloudy
12:15 PM 55.9 °F - 48.0 °F 75% 30.16 in 10.0 mi SE 12.7 mph - N/A   Mostly Cloudy
12:54 PM 59.0 °F - 50.0 °F 72% 30.13 in 10.0 mi SE 16.1 mph 23.0 mph N/A   Mostly Cloudy
1:54 PM 66.0 °F - 53.1 °F 63% 30.08 in 10.0 mi SE 11.5 mph - N/A   Mostly Cloudy
2:54 PM 73.0 °F - 55.9 °F 55% 30.04 in 10.0 mi SSE 9.2 mph - N/A   Mostly Cloudy
3:54 PM 72.0 °F - 55.9 °F 57% 29.99 in 10.0 mi SE 11.5 mph - N/A   Mostly Cloudy
4:54 PM 71.1 °F - 57.0 °F 61% 29.98 in 7.0 mi SE 13.8 mph - 0.00 in Rain Light Rain
5:54 PM 70.0 °F - 59.0 °F 68% 29.96 in 10.0 mi SSE 9.2 mph - 0.04 in   Mostly Cloudy
6:54 PM 71.1 °F - 55.9 °F 59% 29.95 in 8.0 mi South 11.5 mph - 0.00 in Rain Rain
7:10 PM 66.9 °F - 57.9 °F 73% 29.98 in 2.0 mi WSW 6.9 mph - 0.03 in Rain Rain
7:15 PM 66.9 °F - 59.0 °F 76% 29.99 in 3.0 mi West 9.2 mph - 0.07 in Rain Light Rain
7:38 PM 66.0 °F - 60.1 °F 81% 30.00 in 10.0 mi West 5.8 mph - 0.07 in Rain Light Rain
7:54 PM 64.9 °F - 62.1 °F 90% 30.02 in 9.0 mi NW 5.8 mph - 0.08 in Rain Light Rain
8:13 PM 64.9 °F - 62.1 °F 90% 30.02 in 3.0 mi NW 5.8 mph - 0.04 in Rain Rain
8:34 PM 62.1 °F - 60.1 °F 93% 30.03 in 8.0 mi NNW 4.6 mph - 0.07 in Rain Light Rain
8:44 PM 61.0 °F - 59.0 °F 93% 30.02 in 4.0 mi North 5.8 mph - 0.09 in Rain Rain
8:54 PM 61.0 °F - 57.9 °F 90% 30.04 in 6.0 mi Calm Calm - 0.11 in Rain Light Rain
9:10 PM 59.0 °F - 57.0 °F 93% 30.05 in 5.0 mi Calm Calm - 0.01 in Rain Light Rain
9:35 PM 62.1 °F - 59.0 °F 90% 30.04 in 5.0 mi SW 8.1 mph - 0.10 in Rain Light Rain
9:54 PM 61.0 °F - 59.0 °F 93% 30.05 in 4.0 mi SW 5.8 mph - 0.11 in Rain Heavy Rain
10:19 PM 62.1 °F - 60.1 °F 93% 30.02 in 8.0 mi SSW 6.9 mph - 0.04 in Rain Light Rain
10:54 PM 63.0 °F - 60.1 °F 90% 30.04 in 10.0 mi SW 10.4 mph - 0.05 in   Overcast
11:21 PM 63.0 °F - 59.0 °F 87% 30.04 in 10.0 mi WSW 9.2 mph - N/A   Overcast
11:54 PM 63.0 °F - 59.0 °F 87% 30.05 in 10.0 mi WSW 9.2 mph - N/A   Overcast